Time,TemperatureF,DewpointF,PressureIn,WindDirection,WindDirectionDegrees,WindSpeedMPH,WindSpeedGustMPH,Humidity,HourlyPrecipIn,Conditions,Clouds,dailyrainin,SolarRadiationWatts/m^2,SoftwareType,DateUTC
2013-09-28 00:00:00,61.4,54.1,29.95,ESE,105,0.0,3.0,77,0.00,,---,0.00,0.00,VWS V14.01,2013-09-28 05:00:00,
2013-09-28 00:02:00,61.4,54.1,29.95,ESE,105,1.0,1.0,77,0.00,,---,0.00,0.00,VWS V14.01,2013-09-28 05:02:00,
2013-09-28 00:07:00,61.5,54.2,29.95,ESE,105,0.0,2.0,77,0.00,,---,0.00,0.00,VWS V14.01,2013-09-28 05:07:00,
2013-09-28 00:12:00,61.6,54.0,29.95,ESE,105,0.0,2.0,76,0.00,,---,0.00,0.00,VWS V14.01,2013-09-28 05:12:00,
2013-09-28 00:17:00,61.6,54.0,29.95,ESE,105,0.0,2.0,76,0.00,,---,0.00,0.00,VWS V14.01,2013-09-28 05:17:00,
2013-09-28 00:22:00,61.6,54.0,29.95,ESE,105,0.0,2.0,76,0.00,,---,0.00,0.00,VWS V14.01,2013-09-28 05:22:00,
2013-09-28 00:26:00,61.6,54.0,29.95,ESE,105,0.0,2.0,76,0.00,,---,0.00,0.00,VWS V14.01,2013-09-28 05:26:00,
2013-09-28 00:32:00,61.5,53.5,29.95,ESE,105,0.0,2.0,75,0.00,,---,0.00,0.00,VWS V14.01,2013-09-28 05:32:00,
2013-09-28 00:36:00,61.6,53.2,29.95,ESE,105,0.0,2.0,74,0.00,,---,0.00,0.00,VWS V14.01,2013-09-28 05:36:00,
2013-09-28 00:42:00,61.6,53.2,29.94,ESE,105,1.0,2.0,74,0.00,,---,0.00,0.00,VWS V14.01,2013-09-28 05:42:00,
2013-09-28 00:46:00,61.7,53.3,29.94,ESE,105,0.0,2.0,74,0.00,,---,0.00,0.00,VWS V14.01,2013-09-28 05:46:00,
2013-09-28 00:51:00,61.7,53.3,29.94,ESE,105,0.0,2.0,74,0.00,,---,0.00,0.00,VWS V14.01,2013-09-28 05:51:00,
2013-09-28 00:56:00,61.7,53.0,29.94,ESE,105,0.0,2.0,73,0.00,,---,0.00,0.00,VWS V14.01,2013-09-28 05:56:00,
2013-09-28 01:00:00,61.7,53.0,29.94,ESE,105,0.0,2.0,73,0.00,,---,0.00,0.00,VWS V14.01,2013-09-28 06:00:00,
2013-09-28 01:01:00,61.7,53.0,29.94,ESE,105,1.0,1.0,73,0.00,,---,0.00,0.00,VWS V14.01,2013-09-28 06:01:00,
2013-09-28 01:06:00,61.7,53.0,29.94,ESE,105,0.0,1.0,73,0.00,,---,0.00,0.00,VWS V14.01,2013-09-28 06:06:00,
2013-09-28 01:11:00,61.7,53.0,29.94,ESE,105,0.0,1.0,73,0.00,,---,0.00,0.00,VWS V14.01,2013-09-28 06:11:00,
2013-09-28 01:16:00,61.6,52.9,29.94,ESE,105,2.0,2.0,73,0.00,,---,0.00,0.00,VWS V14.01,2013-09-28 06:16:00,
2013-09-28 01:21:00,61.5,52.8,29.95,ESE,105,0.0,2.0,73,0.00,,---,0.00,0.00,VWS V14.01,2013-09-28 06:21:00,
2013-09-28 01:26:00,61.5,52.8,29.94,ESE,105,0.0,2.0,73,0.00,,---,0.00,0.00,VWS V14.01,2013-09-28 06:26:00,
2013-09-28 01:31:00,61.5,52.8,29.95,ESE,105,1.0,2.0,73,0.00,,---,0.00,0.00,VWS V14.01,2013-09-28 06:31:00,
2013-09-28 01:36:00,61.4,52.7,29.95,ESE,105,0.0,2.0,73,0.00,,---,0.00,0.00,VWS V14.01,2013-09-28 06:36:00,
2013-09-28 01:41:00,61.3,52.6,29.95,ESE,105,0.0,2.0,73,0.00,,---,0.00,0.00,VWS V14.01,2013-09-28 06:41:00,
2013-09-28 01:46:00,61.2,52.5,29.95,ESE,105,0.0,2.0,73,0.00,,---,0.00,0.00,VWS V14.01,2013-09-28 06:46:00,
2013-09-28 01:51:00,61.1,52.4,29.95,ESE,105,0.0,2.0,73,0.00,,---,0.00,0.00,VWS V14.01,2013-09-28 06:51:00,
2013-09-28 01:56:00,61.0,52.7,29.95,ESE,105,0.0,2.0,74,0.00,,---,0.00,0.00,VWS V14.01,2013-09-28 06:56:00,
2013-09-28 02:00:00,61.0,52.7,29.95,ESE,105,0.0,2.0,74,0.00,,---,0.00,0.00,VWS V14.01,2013-09-28 07:00:00,
2013-09-28 02:01:00,60.9,52.6,29.95,ESE,105,0.0,0.0,74,0.00,,---,0.00,0.00,VWS V14.01,2013-09-28 07:01:00,
2013-09-28 02:06:00,60.8,52.1,29.94,ESE,105,0.0,0.0,73,0.00,,---,0.00,0.00,VWS V14.01,2013-09-28 07:06:00,
2013-09-28 02:12:00,60.6,51.9,29.94,ESE,105,0.0,0.0,73,0.00,,---,0.00,0.00,VWS V14.01,2013-09-28 07:12:00,
2013-09-28 02:17:00,60.3,52.0,29.94,ESE,105,0.0,0.0,74,0.00,,---,0.00,0.00,VWS V14.01,2013-09-28 07:17:00,
2013-09-28 02:21:00,60.2,52.3,29.94,ESE,105,0.0,0.0,75,0.00,,---,0.00,0.00,VWS V14.01,2013-09-28 07:21:00,
2013-09-28 02:26:00,59.9,52.0,29.94,ESE,105,0.0,0.0,75,0.00,,---,0.00,0.00,VWS V14.01,2013-09-28 07:26:00,
2013-09-28 02:32:00,59.6,52.0,29.94,ESE,105,0.0,0.0,76,0.00,,---,0.00,0.00,VWS V14.01,2013-09-28 07:32:00,
2013-09-28 02:37:00,59.4,51.8,29.94,ESE,105,0.0,0.0,76,0.00,,---,0.00,0.00,VWS V14.01,2013-09-28 07:37:00,
2013-09-28 02:42:00,59.1,51.9,29.94,ESE,105,0.0,0.0,77,0.00,,---,0.00,0.00,VWS V14.01,2013-09-28 07:42:00,
2013-09-28 02:47:00,58.9,51.7,29.94,ESE,105,0.0,0.0,77,0.00,,---,0.00,0.00,VWS V14.01,2013-09-28 07:47:00,
2013-09-28 02:52:00,58.6,51.8,29.93,ESE,105,0.0,0.0,78,0.00,,---,0.00,0.00,VWS V14.01,2013-09-28 07:52:00,
2013-09-28 02:57:00,58.4,51.6,29.93,ESE,105,0.0,0.0,78,0.00,,---,0.00,0.00,VWS V14.01,2013-09-28 07:57:00,
2013-09-28 03:00:00,58.3,51.5,29.93,ESE,105,0.0,0.0,78,0.00,,---,0.00,0.00,VWS V14.01,2013-09-28 08:00:00,
2013-09-28 03:02:00,58.2,51.4,29.92,ESE,105,0.0,0.0,78,0.00,,---,0.00,0.00,VWS V14.01,2013-09-28 08:02:00,
2013-09-28 03:07:00,57.9,51.1,29.92,ESE,105,0.0,0.0,78,0.00,,---,0.00,0.00,VWS V14.01,2013-09-28 08:07:00,
2013-09-28 03:12:00,57.6,50.8,29.92,ESE,105,0.0,0.0,78,0.00,,---,0.00,0.00,VWS V14.01,2013-09-28 08:12:00,
2013-09-28 03:17:00,57.4,51.3,29.92,ESE,105,0.0,0.0,80,0.00,,---,0.00,0.00,VWS V14.01,2013-09-28 08:17:00,
2013-09-28 03:22:00,57.2,51.1,29.92,ESE,105,0.0,0.0,80,0.00,,---,0.00,0.00,VWS V14.01,2013-09-28 08:22:00,
2013-09-28 03:27:00,57.0,51.2,29.92,ESE,105,0.0,0.0,81,0.00,,---,0.00,0.00,VWS V14.01,2013-09-28 08:27:00,
2013-09-28 03:32:00,56.8,51.0,29.92,ESE,105,0.0,1.0,81,0.00,,---,0.00,0.00,VWS V14.01,2013-09-28 08:32:00,
2013-09-28 03:37:00,56.5,50.8,29.92,ESE,105,0.0,1.0,81,0.00,,---,0.00,0.00,VWS V14.01,2013-09-28 08:37:00,
2013-09-28 03:42:00,56.4,51.0,29.92,ESE,105,0.0,1.0,82,0.00,,---,0.00,0.00,VWS V14.01,2013-09-28 08:42:00,
2013-09-28 03:47:00,56.5,51.4,29.92,ESE,105,0.0,1.0,83,0.00,,---,0.00,0.00,VWS V14.01,2013-09-28 08:47:00,
2013-09-28 03:52:00,56.6,51.5,29.92,ESE,105,0.0,1.0,83,0.00,,---,0.00,0.00,VWS V14.01,2013-09-28 08:52:00,
2013-09-28 03:57:00,56.8,51.7,29.92,ESE,105,1.0,2.0,83,0.00,,---,0.00,0.00,VWS V14.01,2013-09-28 08:57:00,
2013-09-28 04:00:00,56.9,51.8,29.92,ESE,105,1.0,2.0,83,0.00,,---,0.00,0.00,VWS V14.01,2013-09-28 09:00:00,
2013-09-28 04:02:00,57.2,52.1,29.92,ESE,105,0.0,1.0,83,0.00,,---,0.00,0.00,VWS V14.01,2013-09-28 09:02:00,
2013-09-28 04:07:00,57.6,52.2,29.92,ESE,105,2.0,2.0,82,0.00,,---,0.00,0.00,VWS V14.01,2013-09-28 09:07:00,
2013-09-28 04:12:00,58.0,52.2,29.92,SSE,155,0.0,2.0,81,0.00,,---,0.00,0.00,VWS V14.01,2013-09-28 09:12:00,
2013-09-28 04:17:00,58.4,52.3,29.92,SE,140,1.0,2.0,80,0.00,,---,0.00,0.00,VWS V14.01,2013-09-28 09:17:00,
2013-09-28 04:22:00,58.9,52.4,29.92,SE,140,2.0,3.0,79,0.00,,---,0.00,0.00,VWS V14.01,2013-09-28 09:22:00,
2013-09-28 04:27:00,59.2,52.3,29.92,SE,140,0.0,3.0,78,0.00,,---,0.00,0.00,VWS V14.01,2013-09-28 09:27:00,
2013-09-28 04:32:00,59.5,52.6,29.92,SE,140,0.0,3.0,78,0.00,,---,0.00,0.00,VWS V14.01,2013-09-28 09:32:00,
2013-09-28 04:37:00,59.6,52.4,29.92,SE,140,1.0,3.0,77,0.00,,---,0.00,0.00,VWS V14.01,2013-09-28 09:37:00,
2013-09-28 04:42:00,59.8,52.6,29.92,SE,140,1.0,3.0,77,0.00,,---,0.00,0.00,VWS V14.01,2013-09-28 09:42:00,
2013-09-28 04:47:00,59.9,52.7,29.92,SE,140,0.0,3.0,77,0.00,,---,0.00,0.00,VWS V14.01,2013-09-28 09:47:00,
2013-09-28 04:52:00,59.9,53.0,29.92,SE,140,0.0,3.0,78,0.00,,---,0.00,0.00,VWS V14.01,2013-09-28 09:52:00,
2013-09-28 04:57:00,59.9,52.7,29.92,SE,140,0.0,3.0,77,0.00,,---,0.00,0.00,VWS V14.01,2013-09-28 09:57:00,
2013-09-28 05:00:00,59.9,52.7,29.92,SE,140,1.0,3.0,77,0.00,,---,0.00,0.00,VWS V14.01,2013-09-28 10:00:00,
2013-09-28 05:02:00,59.9,52.7,29.92,SE,140,0.0,1.0,77,0.00,,---,0.00,0.00,VWS V14.01,2013-09-28 10:02:00,
2013-09-28 05:07:00,59.9,52.7,29.92,SE,140,0.0,1.0,77,0.00,,---,0.00,0.00,VWS V14.01,2013-09-28 10:07:00,
2013-09-28 05:12:00,60.0,52.8,29.92,SE,140,0.0,1.0,77,0.00,,---,0.00,0.00,VWS V14.01,2013-09-28 10:12:00,
2013-09-28 05:17:00,60.0,52.4,29.92,SE,140,0.0,1.0,76,0.00,,---,0.00,0.00,VWS V14.01,2013-09-28 10:17:00,
2013-09-28 05:22:00,60.1,52.9,29.92,SE,140,0.0,1.0,77,0.00,,---,0.00,0.00,VWS V14.01,2013-09-28 10:22:00,
2013-09-28 05:27:00,60.1,52.9,29.92,SE,140,0.0,1.0,77,0.00,,---,0.00,0.00,VWS V14.01,2013-09-28 10:27:00,
2013-09-28 05:32:00,60.0,52.8,29.92,SE,140,0.0,1.0,77,0.00,,---,0.00,0.00,VWS V14.01,2013-09-28 10:32:00,
2013-09-28 05:37:00,60.0,52.8,29.92,SE,140,0.0,1.0,77,0.00,,---,0.00,0.00,VWS V14.01,2013-09-28 10:37:00,
2013-09-28 05:42:00,59.9,52.7,29.92,SE,140,0.0,1.0,77,0.00,,---,0.00,0.00,VWS V14.01,2013-09-28 10:42:00,
2013-09-28 05:47:00,59.8,52.6,29.92,NNW,334,0.0,4.0,77,0.00,,---,0.00,0.00,VWS V14.01,2013-09-28 10:47:00,
2013-09-28 05:52:00,59.7,52.8,29.92,NNW,334,0.0,4.0,78,0.00,,---,0.00,0.00,VWS V14.01,2013-09-28 10:52:00,
2013-09-28 05:57:00,59.5,53.0,29.93,NW,315,0.0,4.0,79,0.00,,---,0.00,0.00,VWS V14.01,2013-09-28 10:57:00,
2013-09-28 06:00:00,59.5,53.0,29.92,NW,315,0.0,4.0,79,0.00,,---,0.00,0.00,VWS V14.01,2013-09-28 11:00:00,
2013-09-28 06:02:00,59.5,53.0,29.92,NW,315,0.0,0.0,79,0.00,,---,0.00,0.00,VWS V14.01,2013-09-28 11:02:00,
2013-09-28 06:07:00,59.4,52.9,29.92,NW,315,1.0,2.0,79,0.00,,---,0.00,0.00,VWS V14.01,2013-09-28 11:07:00,
2013-09-28 06:12:00,59.3,53.1,29.92,NW,315,0.0,2.0,80,0.00,,---,0.00,0.00,VWS V14.01,2013-09-28 11:12:00,
2013-09-28 06:17:00,59.3,53.1,29.92,NW,315,0.0,2.0,80,0.00,,---,0.00,0.00,VWS V14.01,2013-09-28 11:17:00,
2013-09-28 06:22:00,59.4,53.2,29.92,SSE,160,0.0,4.0,80,0.00,,---,0.00,0.00,VWS V14.01,2013-09-28 11:22:00,
2013-09-28 06:27:00,59.5,53.3,29.92,SSE,147,0.0,4.0,80,0.00,,---,0.00,0.00,VWS V14.01,2013-09-28 11:27:00,
2013-09-28 06:32:00,59.7,53.2,29.92,SSE,156,0.0,4.0,79,0.00,,---,0.00,0.00,VWS V14.01,2013-09-28 11:32:00,
2013-09-28 06:37:00,59.8,53.3,29.92,SE,128,0.0,4.0,79,0.00,,---,0.00,0.00,VWS V14.01,2013-09-28 11:37:00,
2013-09-28 06:42:00,60.0,53.5,29.92,East,96,0.0,4.0,79,0.00,,---,0.00,0.00,VWS V14.01,2013-09-28 11:42:00,
2013-09-28 06:47:00,60.0,53.1,29.91,East,96,0.0,4.0,78,0.00,,---,0.00,0.00,VWS V14.01,2013-09-28 11:47:00,
2013-09-28 06:52:00,60.1,53.2,29.91,ESE,120,1.0,4.0,78,0.00,,---,0.00,0.00,VWS V14.01,2013-09-28 11:52:00,
2013-09-28 06:57:00,60.2,53.3,29.91,ESE,121,0.0,4.0,78,0.00,,---,0.00,5.00,VWS V14.01,2013-09-28 11:57:00,
2013-09-28 07:00:00,60.1,53.2,29.91,SE,128,0.0,4.0,78,0.00,,---,0.00,7.00,VWS V14.01,2013-09-28 12:00:00,
2013-09-28 07:02:00,60.2,53.3,29.91,SE,132,1.0,2.0,78,0.00,,---,0.00,11.00,VWS V14.01,2013-09-28 12:02:00,
2013-09-28 07:07:00,60.3,53.4,29.91,SE,132,0.0,3.0,78,0.00,,---,0.00,16.00,VWS V14.01,2013-09-28 12:07:00,
2013-09-28 07:12:00,60.4,53.2,29.91,SE,132,0.0,3.0,77,0.00,,---,0.00,23.00,VWS V14.01,2013-09-28 12:12:00,
2013-09-28 07:17:00,60.5,53.3,29.91,SE,135,0.0,3.0,77,0.00,,---,0.00,26.00,VWS V14.01,2013-09-28 12:17:00,
2013-09-28 07:22:00,60.6,53.4,29.91,SE,135,1.0,3.0,77,0.00,,---,0.00,32.00,VWS V14.01,2013-09-28 12:22:00,
2013-09-28 07:27:00,60.7,53.5,29.91,SE,142,1.0,3.0,77,0.00,,---,0.00,37.00,VWS V14.01,2013-09-28 12:27:00,
2013-09-28 07:32:00,60.8,53.5,29.91,SE,146,3.0,4.0,77,0.00,,---,0.00,72.00,VWS V14.01,2013-09-28 12:32:00,
2013-09-28 07:37:00,61.0,53.8,29.91,South,171,1.0,4.0,77,0.00,,---,0.00,53.00,VWS V14.01,2013-09-28 12:37:00,
2013-09-28 07:42:00,61.1,53.5,29.91,SE,143,2.0,4.0,76,0.00,,---,0.00,65.00,VWS V14.01,2013-09-28 12:42:00,
2013-09-28 07:47:00,61.3,54.0,29.91,SSE,165,0.0,4.0,77,0.00,,---,0.00,49.00,VWS V14.01,2013-09-28 12:47:00,
2013-09-28 07:52:00,61.5,53.9,29.91,SSE,162,1.0,4.0,76,0.00,,---,0.00,83.00,VWS V14.01,2013-09-28 12:52:00,
2013-09-28 07:57:00,61.6,54.0,29.91,SSE,152,2.0,4.0,76,0.00,,---,0.00,69.00,VWS V14.01,2013-09-28 12:57:00,
2013-09-28 08:00:00,61.7,54.1,29.91,SSE,150,3.0,4.0,76,0.00,,---,0.00,69.00,VWS V14.01,2013-09-28 13:00:00,
2013-09-28 08:02:00,61.8,54.2,29.91,SSE,153,1.0,4.0,76,0.00,,---,0.00,62.00,VWS V14.01,2013-09-28 13:02:00,
2013-09-28 08:07:00,61.9,54.3,29.91,ESE,111,1.0,4.0,76,0.00,,---,0.00,58.00,VWS V14.01,2013-09-28 13:07:00,
2013-09-28 08:12:00,61.9,54.3,29.91,SE,140,2.0,4.0,76,0.00,,---,0.00,56.00,VWS V14.01,2013-09-28 13:12:00,
2013-09-28 08:17:00,62.0,54.4,29.90,SE,130,1.0,4.0,76,0.00,,---,0.00,47.00,VWS V14.01,2013-09-28 13:17:00,
2013-09-28 08:22:00,62.0,54.4,29.90,SE,141,1.0,4.0,76,0.00,,---,0.00,162.00,VWS V14.01,2013-09-28 13:22:00,
2013-09-28 08:27:00,62.1,54.5,29.90,SE,140,2.0,4.0,76,0.00,,---,0.00,188.00,VWS V14.01,2013-09-28 13:27:00,
2013-09-28 08:32:00,62.3,54.7,29.90,ESE,111,3.0,4.0,76,0.00,,---,0.00,216.00,VWS V14.01,2013-09-28 13:32:00,
2013-09-28 08:37:00,62.7,54.7,29.90,ESE,105,1.0,4.0,75,0.00,,---,0.00,132.00,VWS V14.01,2013-09-28 13:37:00,
2013-09-28 08:42:00,63.0,55.0,29.89,SE,140,1.0,4.0,75,0.00,,---,0.00,188.00,VWS V14.01,2013-09-28 13:42:00,
2013-09-28 08:47:00,63.4,55.3,29.89,SSE,161,0.0,4.0,75,0.00,,---,0.00,93.00,VWS V14.01,2013-09-28 13:47:00,
2013-09-28 08:52:00,63.6,55.2,29.89,SSW,198,2.0,4.0,74,0.00,,---,0.00,253.00,VWS V14.01,2013-09-28 13:52:00,
2013-09-28 08:57:00,64.0,55.6,29.89,NE,36,1.0,5.0,74,0.00,,---,0.00,288.00,VWS V14.01,2013-09-28 13:57:00,
2013-09-28 09:00:00,64.1,55.7,29.89,South,170,1.0,5.0,74,0.00,,---,0.00,304.00,VWS V14.01,2013-09-28 14:00:00,
2013-09-28 09:02:00,64.5,56.0,29.88,SSE,163,1.0,2.0,74,0.00,,---,0.00,257.00,VWS V14.01,2013-09-28 14:02:00,
2013-09-28 09:07:00,64.9,56.0,29.89,South,186,3.0,3.0,73,0.00,,---,0.00,197.00,VWS V14.01,2013-09-28 14:07:00,
2013-09-28 09:12:00,65.2,56.3,29.88,SSW,202,1.0,5.0,73,0.00,,---,0.00,241.00,VWS V14.01,2013-09-28 14:12:00,
2013-09-28 09:17:00,65.4,56.2,29.88,SSW,206,3.0,5.0,72,0.00,,---,0.00,102.00,VWS V14.01,2013-09-28 14:17:00,
2013-09-28 09:22:00,65.7,56.4,29.88,South,186,1.0,5.0,72,0.00,,---,0.00,318.00,VWS V14.01,2013-09-28 14:22:00,
2013-09-28 09:27:00,66.1,56.8,29.88,SSW,205,5.0,6.0,72,0.00,,---,0.00,376.00,VWS V14.01,2013-09-28 14:27:00,
2013-09-28 09:32:00,66.7,56.6,29.88,SSW,213,3.0,8.0,70,0.00,,---,0.00,439.00,VWS V14.01,2013-09-28 14:32:00,
2013-09-28 09:37:00,67.1,56.6,29.88,SSE,167,2.0,8.0,69,0.00,,---,0.00,406.00,VWS V14.01,2013-09-28 14:37:00,
2013-09-28 09:42:00,67.1,57.0,29.88,SSW,212,1.0,8.0,70,0.00,,---,0.00,434.00,VWS V14.01,2013-09-28 14:42:00,
2013-09-28 09:47:00,67.7,57.2,29.88,SE,144,4.0,8.0,69,0.00,,---,0.00,418.00,VWS V14.01,2013-09-28 14:47:00,
2013-09-28 09:52:00,68.0,57.1,29.87,South,180,4.0,8.0,68,0.00,,---,0.00,369.00,VWS V14.01,2013-09-28 14:52:00,
2013-09-28 09:57:00,68.1,57.6,29.87,SSW,213,2.0,9.0,69,0.00,,---,0.00,283.00,VWS V14.01,2013-09-28 14:57:00,
2013-09-28 10:00:00,68.0,57.5,29.87,SSW,200,3.0,9.0,69,0.00,,---,0.00,290.00,VWS V14.01,2013-09-28 15:00:00,
2013-09-28 10:02:00,68.0,57.1,29.87,South,188,1.0,4.0,68,0.00,,---,0.00,171.00,VWS V14.01,2013-09-28 15:02:00,
2013-09-28 10:07:00,68.5,57.9,29.86,SSE,159,2.0,5.0,69,0.00,,---,0.00,439.00,VWS V14.01,2013-09-28 15:07:00,
2013-09-28 10:12:00,69.1,57.7,29.86,SSE,151,2.0,5.0,67,0.00,,---,0.00,329.00,VWS V14.01,2013-09-28 15:12:00,
2013-09-28 10:17:00,69.7,58.3,29.86,SSW,194,3.0,5.0,67,0.00,,---,0.00,441.00,VWS V14.01,2013-09-28 15:17:00,
2013-09-28 10:22:00,70.4,58.1,29.85,SSE,148,1.0,5.0,65,0.00,,---,0.00,512.00,VWS V14.01,2013-09-28 15:22:00,
2013-09-28 10:27:00,71.3,58.5,29.85,SW,236,4.0,6.0,64,0.00,,---,0.00,589.00,VWS V14.01,2013-09-28 15:27:00,
2013-09-28 10:32:00,71.9,59.1,29.85,South,190,4.0,10.0,64,0.00,,---,0.00,448.00,VWS V14.01,2013-09-28 15:32:00,
2013-09-28 10:37:00,72.3,58.6,29.85,South,175,3.0,10.0,62,0.00,,---,0.00,610.00,VWS V14.01,2013-09-28 15:37:00,
2013-09-28 10:42:00,72.6,58.8,29.85,SSW,213,6.0,10.0,62,0.00,,---,0.00,612.00,VWS V14.01,2013-09-28 15:42:00,
2013-09-28 10:47:00,72.5,59.2,29.85,SW,214,4.0,11.0,63,0.00,,---,0.00,617.00,VWS V14.01,2013-09-28 15:47:00,
2013-09-28 10:52:00,73.1,59.8,29.85,SSW,203,8.0,11.0,63,0.00,,---,0.00,598.00,VWS V14.01,2013-09-28 15:52:00,
2013-09-28 10:57:00,73.0,59.7,29.84,SSW,201,3.0,11.0,63,0.00,,---,0.00,534.00,VWS V14.01,2013-09-28 15:57:00,
2013-09-28 11:00:00,73.0,59.2,29.84,SSW,205,5.0,11.0,62,0.00,,---,0.00,485.00,VWS V14.01,2013-09-28 16:00:00,
2013-09-28 11:02:00,73.0,59.7,29.84,SSW,192,5.0,7.0,63,0.00,,---,0.00,468.00,VWS V14.01,2013-09-28 16:02:00,
2013-09-28 11:07:00,72.9,60.0,29.84,South,174,2.0,10.0,64,0.00,,---,0.00,207.00,VWS V14.01,2013-09-28 16:07:00,
2013-09-28 11:12:00,72.5,59.2,29.83,SSW,192,6.0,10.0,63,0.00,,---,0.00,181.00,VWS V14.01,2013-09-28 16:12:00,
2013-09-28 11:17:00,72.3,59.9,29.83,SSW,194,3.0,10.0,65,0.00,,---,0.00,431.00,VWS V14.01,2013-09-28 16:17:00,
2013-09-28 11:22:00,73.2,59.4,29.83,South,173,2.0,10.0,62,0.00,,---,0.00,473.00,VWS V14.01,2013-09-28 16:22:00,
2013-09-28 11:27:00,73.6,59.8,29.83,South,176,6.0,10.0,62,0.00,,---,0.00,656.00,VWS V14.01,2013-09-28 16:27:00,
2013-09-28 11:32:00,74.5,60.2,29.82,South,190,5.0,10.0,61,0.00,,---,0.00,566.00,VWS V14.01,2013-09-28 16:32:00,
2013-09-28 11:37:00,75.1,61.2,29.82,SSW,205,5.0,10.0,62,0.00,,---,0.00,629.00,VWS V14.01,2013-09-28 16:37:00,
2013-09-28 11:42:00,75.3,61.4,29.81,SSW,196,4.0,10.0,62,0.00,,---,0.00,536.00,VWS V14.01,2013-09-28 16:42:00,
2013-09-28 11:47:00,75.3,60.9,29.81,SSW,200,2.0,10.0,61,0.00,,---,0.00,722.00,VWS V14.01,2013-09-28 16:47:00,
2013-09-28 11:52:00,76.0,61.1,29.81,SSE,160,1.0,10.0,60,0.00,,---,0.00,724.00,VWS V14.01,2013-09-28 16:52:00,
2013-09-28 11:57:00,76.7,61.8,29.81,South,173,2.0,10.0,60,0.00,,---,0.00,580.00,VWS V14.01,2013-09-28 16:57:00,
2013-09-28 12:00:00,76.9,62.4,29.81,SSW,205,0.0,10.0,61,0.00,,---,0.00,580.00,VWS V14.01,2013-09-28 17:00:00,
2013-09-28 12:02:00,77.2,61.8,29.80,SSW,205,4.0,6.0,59,0.00,,---,0.00,494.00,VWS V14.01,2013-09-28 17:02:00,
2013-09-28 12:07:00,76.4,61.5,29.80,SSE,155,5.0,7.0,60,0.00,,---,0.00,446.00,VWS V14.01,2013-09-28 17:07:00,
2013-09-28 12:12:00,75.6,61.2,29.80,SW,217,3.0,8.0,61,0.00,,---,0.00,483.00,VWS V14.01,2013-09-28 17:12:00,
2013-09-28 12:17:00,75.7,61.3,29.80,SSW,208,3.0,8.0,61,0.00,,---,0.00,675.00,VWS V14.01,2013-09-28 17:17:00,
2013-09-28 12:22:00,76.6,61.7,29.79,SE,126,2.0,8.0,60,0.00,,---,0.00,744.00,VWS V14.01,2013-09-28 17:22:00,
2013-09-28 12:27:00,76.6,62.2,29.79,SSW,202,9.0,10.0,61,0.00,,---,0.00,687.00,VWS V14.01,2013-09-28 17:27:00,
2013-09-28 12:32:00,76.8,62.3,29.79,South,190,10.0,13.0,61,0.00,,---,0.00,698.00,VWS V14.01,2013-09-28 17:32:00,
2013-09-28 12:37:00,77.2,62.2,29.79,SSW,196,7.0,14.0,60,0.00,,---,0.00,687.00,VWS V14.01,2013-09-28 17:37:00,
2013-09-28 12:42:00,77.3,61.9,29.78,SSW,200,7.0,14.0,59,0.00,,---,0.00,680.00,VWS V14.01,2013-09-28 17:42:00,
2013-09-28 12:47:00,78.1,63.6,29.78,SE,140,5.0,14.0,61,0.00,,---,0.00,689.00,VWS V14.01,2013-09-28 17:47:00,
2013-09-28 12:52:00,78.3,62.3,29.78,SE,144,5.0,14.0,58,0.00,,---,0.00,735.00,VWS V14.01,2013-09-28 17:52:00,
2013-09-28 12:57:00,78.2,62.2,29.77,South,184,6.0,14.0,58,0.00,,---,0.00,710.00,VWS V14.01,2013-09-28 17:57:00,
2013-09-28 13:00:00,78.2,62.7,29.77,SSE,148,2.0,14.0,59,0.00,,---,0.00,719.00,VWS V14.01,2013-09-28 18:00:00,
2013-09-28 13:02:00,78.5,63.0,29.77,SSW,205,6.0,10.0,59,0.00,,---,0.00,733.00,VWS V14.01,2013-09-28 18:02:00,
2013-09-28 13:07:00,78.8,62.3,29.76,SSE,148,7.0,10.0,57,0.00,,---,0.00,798.00,VWS V14.01,2013-09-28 18:07:00,
2013-09-28 13:12:00,78.0,62.5,29.76,SSE,155,4.0,15.0,59,0.00,,---,0.00,374.00,VWS V14.01,2013-09-28 18:12:00,
2013-09-28 13:17:00,78.0,62.5,29.76,SW,228,9.0,15.0,59,0.00,,---,0.00,269.00,VWS V14.01,2013-09-28 18:17:00,
2013-09-28 13:22:00,77.7,62.7,29.76,WSW,244,8.0,15.0,60,0.00,,---,0.00,287.00,VWS V14.01,2013-09-28 18:22:00,
2013-09-28 13:27:00,77.5,63.5,29.75,SSW,200,4.0,15.0,62,0.00,,---,0.00,369.00,VWS V14.01,2013-09-28 18:27:00,
2013-09-28 13:32:00,78.0,63.5,29.75,SW,232,5.0,15.0,61,0.00,,---,0.00,510.00,VWS V14.01,2013-09-28 18:32:00,
2013-09-28 13:37:00,78.0,63.0,29.75,SSW,202,7.0,15.0,60,0.00,,---,0.00,151.00,VWS V14.01,2013-09-28 18:37:00,
2013-09-28 13:42:00,77.6,63.1,29.75,SSW,195,3.0,15.0,61,0.00,,---,0.00,155.00,VWS V14.01,2013-09-28 18:42:00,
2013-09-28 13:47:00,77.4,62.4,29.75,SSE,149,6.0,15.0,60,0.00,,---,0.00,58.00,VWS V14.01,2013-09-28 18:47:00,
2013-09-28 13:52:00,77.1,62.6,29.75,SSW,202,1.0,15.0,61,0.00,,---,0.00,60.00,VWS V14.01,2013-09-28 18:52:00,
2013-09-28 13:57:00,77.0,62.5,29.74,SSW,205,2.0,15.0,61,0.00,,---,0.00,69.00,VWS V14.01,2013-09-28 18:57:00,
2013-09-28 14:00:00,76.9,62.9,29.74,SSW,211,3.0,15.0,62,0.00,,---,0.00,90.00,VWS V14.01,2013-09-28 19:00:00,
2013-09-28 14:02:00,76.8,62.8,29.74,South,188,4.0,7.0,62,0.00,,---,0.00,127.00,VWS V14.01,2013-09-28 19:02:00,
2013-09-28 14:07:00,76.7,62.7,29.74,SSW,201,4.0,9.0,62,0.00,,---,0.00,86.00,VWS V14.01,2013-09-28 19:07:00,
2013-09-28 14:12:00,76.7,62.7,29.74,SSW,192,5.0,9.0,62,0.00,,---,0.00,58.00,VWS V14.01,2013-09-28 19:12:00,
2013-09-28 14:17:00,76.6,63.1,29.74,WSW,257,3.0,9.0,63,0.00,,---,0.00,53.00,VWS V14.01,2013-09-28 19:17:00,
2013-09-28 14:22:00,76.4,62.4,29.74,South,186,2.0,9.0,62,0.00,,---,0.00,51.00,VWS V14.01,2013-09-28 19:22:00,
2013-09-28 14:27:00,76.4,62.9,29.74,SSW,199,7.0,12.0,63,0.00,,---,0.00,46.00,VWS V14.01,2013-09-28 19:27:00,
2013-09-28 14:32:00,76.2,62.7,29.74,SSW,213,5.0,12.0,63,0.00,,---,0.00,40.00,VWS V14.01,2013-09-28 19:32:00,
2013-09-28 14:37:00,76.1,63.0,29.74,WSW,252,7.0,12.0,64,0.00,,---,0.00,33.00,VWS V14.01,2013-09-28 19:37:00,
2013-09-28 14:42:00,76.0,63.0,29.74,SSW,193,4.0,12.0,64,0.00,,---,0.00,26.00,VWS V14.01,2013-09-28 19:42:00,
2013-09-28 14:47:00,76.0,63.0,29.74,SSE,150,5.0,12.0,64,0.00,,---,0.00,32.00,VWS V14.01,2013-09-28 19:47:00,
2013-09-28 14:52:00,75.6,63.9,29.74,South,191,6.0,12.0,67,0.00,,---,0.00,26.00,VWS V14.01,2013-09-28 19:52:00,
2013-09-28 14:57:00,74.6,63.8,29.74,SSW,194,5.0,14.0,69,0.00,,---,0.00,37.00,VWS V14.01,2013-09-28 19:57:00,
2013-09-28 15:00:00,74.3,63.9,29.74,SSW,201,5.0,14.0,70,0.00,,---,0.00,32.00,VWS V14.01,2013-09-28 20:00:00,
2013-09-28 15:02:00,73.9,63.9,29.74,WSW,239,4.0,9.0,71,0.00,,---,0.00,33.00,VWS V14.01,2013-09-28 20:02:00,
2013-09-28 15:07:00,73.7,64.1,29.74,SSW,198,5.0,9.0,72,0.00,,---,0.00,65.00,VWS V14.01,2013-09-28 20:07:00,
2013-09-28 15:12:00,73.4,64.6,29.75,SSW,196,4.0,9.0,74,0.00,,---,0.00,58.00,VWS V14.01,2013-09-28 20:12:00,
2013-09-28 15:17:00,72.8,64.8,29.75,SW,221,5.0,9.0,76,0.00,,---,0.00,37.00,VWS V14.01,2013-09-28 20:17:00,
2013-09-28 15:22:00,71.9,64.7,29.75,SSW,200,3.0,9.0,78,0.01,,---,0.01,49.00,VWS V14.01,2013-09-28 20:22:00,
2013-09-28 15:27:00,71.1,65.0,29.76,SSW,207,5.0,9.0,81,0.01,,---,0.01,33.00,VWS V14.01,2013-09-28 20:27:00,
2013-09-28 15:32:00,70.2,64.8,29.76,SSW,213,6.0,9.0,83,0.02,,---,0.02,37.00,VWS V14.01,2013-09-28 20:32:00,
2013-09-28 15:37:00,69.6,64.9,29.76,SSW,205,6.0,9.0,85,0.02,,---,0.02,23.00,VWS V14.01,2013-09-28 20:37:00,
2013-09-28 15:42:00,69.1,64.7,29.76,SSW,212,3.0,9.0,86,0.03,,---,0.03,49.00,VWS V14.01,2013-09-28 20:42:00,
2013-09-28 15:47:00,68.7,65.0,29.75,SW,219,5.0,9.0,88,0.03,,---,0.03,49.00,VWS V14.01,2013-09-28 20:47:00,
2013-09-28 15:52:00,68.4,65.0,29.75,SSW,203,4.0,9.0,89,0.04,,---,0.04,69.00,VWS V14.01,2013-09-28 20:52:00,
2013-09-28 15:57:00,68.3,65.3,29.75,SSW,205,6.0,9.0,90,0.05,,---,0.05,42.00,VWS V14.01,2013-09-28 20:57:00,
2013-09-28 16:00:00,68.2,65.2,29.75,SSW,203,4.0,9.0,90,0.05,,---,0.05,39.00,VWS V14.01,2013-09-28 21:00:00,
2013-09-28 16:02:00,68.1,65.4,29.75,SSW,192,6.0,8.0,91,0.05,,---,0.05,30.00,VWS V14.01,2013-09-28 21:02:00,
2013-09-28 16:07:00,67.9,65.2,29.75,SSW,196,1.0,8.0,91,0.05,,---,0.05,44.00,VWS V14.01,2013-09-28 21:07:00,
2013-09-28 16:12:00,67.9,65.5,29.75,SSW,207,4.0,8.0,92,0.06,,---,0.06,39.00,VWS V14.01,2013-09-28 21:12:00,
2013-09-28 16:17:00,67.8,65.4,29.75,SSW,194,6.0,8.0,92,0.06,,---,0.06,19.00,VWS V14.01,2013-09-28 21:17:00,
2013-09-28 16:22:00,67.7,65.3,29.76,SSW,196,6.0,8.0,92,0.07,,---,0.07,19.00,VWS V14.01,2013-09-28 21:22:00,
2013-09-28 16:27:00,67.6,65.2,29.76,SSW,194,5.0,8.0,92,0.07,,---,0.07,19.00,VWS V14.01,2013-09-28 21:27:00,
2013-09-28 16:32:00,67.6,65.5,29.76,SSW,209,10.0,10.0,93,0.08,,---,0.08,21.00,VWS V14.01,2013-09-28 21:32:00,
2013-09-28 16:37:00,67.5,65.4,29.76,SSW,207,5.0,10.0,93,0.10,,---,0.10,23.00,VWS V14.01,2013-09-28 21:37:00,
2013-09-28 16:42:00,67.5,65.4,29.75,SSW,210,5.0,10.0,93,0.12,,---,0.12,28.00,VWS V14.01,2013-09-28 21:42:00,
2013-09-28 16:47:00,67.4,65.3,29.75,SSW,200,7.0,10.0,93,0.13,,---,0.13,28.00,VWS V14.01,2013-09-28 21:47:00,
2013-09-28 16:52:00,67.4,65.6,29.75,SSW,201,6.0,10.0,94,0.14,,---,0.14,28.00,VWS V14.01,2013-09-28 21:52:00,
2013-09-28 16:57:00,67.4,65.6,29.76,SSW,196,2.0,10.0,94,0.14,,---,0.14,33.00,VWS V14.01,2013-09-28 21:57:00,
2013-09-28 17:00:00,67.4,65.6,29.75,SSW,200,3.0,10.0,94,0.16,,---,0.16,35.00,VWS V14.01,2013-09-28 22:00:00,
2013-09-28 17:02:00,67.4,65.6,29.75,SSW,197,3.0,6.0,94,0.11,,---,0.16,26.00,VWS V14.01,2013-09-28 22:02:00,
2013-09-28 17:07:00,67.3,65.5,29.75,SSW,204,5.0,7.0,94,0.12,,---,0.17,23.00,VWS V14.01,2013-09-28 22:07:00,
2013-09-28 17:12:00,67.3,65.5,29.75,SSW,205,4.0,7.0,94,0.12,,---,0.17,21.00,VWS V14.01,2013-09-28 22:12:00,
2013-09-28 17:17:00,67.2,65.4,29.76,SSW,194,6.0,7.0,94,0.14,,---,0.19,14.00,VWS V14.01,2013-09-28 22:17:00,
2013-09-28 17:22:00,67.2,65.4,29.76,SSW,193,4.0,7.0,94,0.14,,---,0.19,16.00,VWS V14.01,2013-09-28 22:22:00,
2013-09-28 17:27:00,67.2,65.4,29.76,SW,217,5.0,7.0,94,0.14,,---,0.19,0.00,VWS V14.01,2013-09-28 22:27:00,
2013-09-28 17:32:00,66.0,63.6,29.78,WSW,238,2.0,10.0,92,0.17,,---,0.22,5.00,VWS V14.01,2013-09-28 22:32:00,
2013-09-28 17:37:00,64.9,62.5,29.78,South,171,1.0,10.0,92,0.17,,---,0.22,11.00,VWS V14.01,2013-09-28 22:37:00,
2013-09-28 17:42:00,63.8,61.1,29.79,SW,225,3.0,10.0,91,0.18,,---,0.23,7.00,VWS V14.01,2013-09-28 22:42:00,
2013-09-28 17:47:00,63.0,60.3,29.79,SSW,205,2.0,11.0,91,0.19,,---,0.24,5.00,VWS V14.01,2013-09-28 22:47:00,
2013-09-28 17:52:00,62.6,59.9,29.80,SW,232,2.0,11.0,91,0.19,,---,0.24,5.00,VWS V14.01,2013-09-28 22:52:00,
2013-09-28 17:57:00,62.1,59.5,29.79,SW,217,2.0,11.0,91,0.19,,---,0.24,9.00,VWS V14.01,2013-09-28 22:57:00,
2013-09-28 18:00:00,62.0,59.3,29.80,SSW,192,1.0,11.0,91,0.19,,---,0.24,7.00,VWS V14.01,2013-09-28 23:00:00,
2013-09-28 18:02:00,61.8,59.2,29.80,West,261,0.0,4.0,91,0.08,,---,0.24,7.00,VWS V14.01,2013-09-28 23:02:00,
2013-09-28 18:07:00,61.6,59.3,29.81,SW,221,1.0,4.0,92,0.08,,---,0.24,0.00,VWS V14.01,2013-09-28 23:07:00,
2013-09-28 18:12:00,61.5,59.2,29.81,SW,215,0.0,4.0,92,0.08,,---,0.24,0.00,VWS V14.01,2013-09-28 23:12:00,
2013-09-28 18:17:00,61.3,59.0,29.81,SW,232,0.0,5.0,92,0.08,,---,0.24,0.00,VWS V14.01,2013-09-28 23:17:00,
2013-09-28 18:22:00,61.1,58.8,29.82,SW,219,0.0,5.0,92,0.08,,---,0.24,0.00,VWS V14.01,2013-09-28 23:22:00,
2013-09-28 18:27:00,60.9,58.6,29.82,WSW,243,1.0,5.0,92,0.08,,---,0.24,0.00,VWS V14.01,2013-09-28 23:27:00,
2013-09-28 18:32:00,60.6,58.3,29.82,WSW,239,1.0,5.0,92,0.08,,---,0.24,0.00,VWS V14.01,2013-09-28 23:32:00,
2013-09-28 18:37:00,60.3,58.0,29.82,SW,236,0.0,5.0,92,0.08,,---,0.24,0.00,VWS V14.01,2013-09-28 23:37:00,
2013-09-28 18:42:00,60.2,57.9,29.82,West,270,0.0,5.0,92,0.08,,---,0.24,0.00,VWS V14.01,2013-09-28 23:42:00,
2013-09-28 18:47:00,60.0,57.7,29.82,SW,225,0.0,5.0,92,0.08,,---,0.24,0.00,VWS V14.01,2013-09-28 23:47:00,
2013-09-28 18:52:00,59.8,57.5,29.82,NNW,344,2.0,5.0,92,0.08,,---,0.24,0.00,VWS V14.01,2013-09-28 23:52:00,
2013-09-28 18:57:00,59.7,57.4,29.83,SW,220,0.0,5.0,92,0.08,,---,0.24,0.00,VWS V14.01,2013-09-28 23:57:00,
2013-09-28 19:00:00,59.7,57.4,29.83,SW,221,1.0,5.0,92,0.08,,---,0.24,0.00,VWS V14.01,2013-09-29 00:00:00,
2013-09-28 19:02:00,59.6,57.6,29.83,NNE,32,0.0,3.0,93,0.00,,---,0.24,0.00,VWS V14.01,2013-09-29 00:02:00,
2013-09-28 19:07:00,59.5,57.5,29.83,WNW,289,2.0,3.0,93,0.00,,---,0.24,0.00,VWS V14.01,2013-09-29 00:07:00,
2013-09-28 19:12:00,59.1,56.8,29.84,SSW,209,1.0,6.0,92,0.01,,---,0.25,0.00,VWS V14.01,2013-09-29 00:12:00,
2013-09-28 19:17:00,58.6,56.3,29.84,NNW,347,2.0,6.0,92,0.01,,---,0.25,0.00,VWS V14.01,2013-09-29 00:17:00,
2013-09-28 19:22:00,58.3,56.0,29.84,West,277,0.0,7.0,92,0.01,,---,0.25,0.00,VWS V14.01,2013-09-29 00:22:00,
2013-09-28 19:27:00,58.1,55.8,29.86,SW,219,0.0,7.0,92,0.01,,---,0.25,0.00,VWS V14.01,2013-09-29 00:27:00,
2013-09-28 19:32:00,58.0,55.7,29.86,SW,221,0.0,7.0,92,0.04,,---,0.28,0.00,VWS V14.01,2013-09-29 00:32:00,
2013-09-28 19:37:00,57.7,55.4,29.86,WNW,302,1.0,7.0,92,0.06,,---,0.30,0.00,VWS V14.01,2013-09-29 00:37:00,
2013-09-28 19:42:00,57.4,55.1,29.85,WSW,253,2.0,7.0,92,0.07,,---,0.31,0.00,VWS V14.01,2013-09-29 00:42:00,
2013-09-28 19:47:00,57.2,54.9,29.86,NNW,330,0.0,7.0,92,0.08,,---,0.32,0.00,VWS V14.01,2013-09-29 00:47:00,
2013-09-28 19:52:00,57.0,54.7,29.87,West,269,0.0,7.0,92,0.08,,---,0.32,0.00,VWS V14.01,2013-09-29 00:52:00,
2013-09-28 19:57:00,56.9,54.6,29.87,West,273,2.0,7.0,92,0.08,,---,0.32,0.00,VWS V14.01,2013-09-29 00:57:00,
2013-09-28 20:00:00,56.9,54.6,29.87,West,273,0.0,7.0,92,0.08,,---,0.32,0.00,VWS V14.01,2013-09-29 01:00:00,
2013-09-28 20:02:00,56.8,54.8,29.87,West,273,0.0,1.0,93,0.08,,---,0.32,0.00,VWS V14.01,2013-09-29 01:02:00,
2013-09-28 20:07:00,56.8,54.8,29.87,West,273,0.0,1.0,93,0.08,,---,0.32,0.00,VWS V14.01,2013-09-29 01:07:00,
2013-09-28 20:12:00,56.7,54.7,29.87,West,272,0.0,2.0,93,0.08,,---,0.32,0.00,VWS V14.01,2013-09-29 01:12:00,
2013-09-28 20:17:00,56.6,54.6,29.87,WNW,288,1.0,2.0,93,0.08,,---,0.32,0.00,VWS V14.01,2013-09-29 01:17:00,
2013-09-28 20:22:00,56.5,54.5,29.88,West,280,0.0,2.0,93,0.08,,---,0.32,0.00,VWS V14.01,2013-09-29 01:22:00,
2013-09-28 20:27:00,56.3,54.3,29.88,West,280,0.0,2.0,93,0.08,,---,0.32,0.00,VWS V14.01,2013-09-29 01:27:00,
2013-09-28 20:32:00,56.2,54.2,29.88,West,280,0.0,2.0,93,0.08,,---,0.32,0.00,VWS V14.01,2013-09-29 01:32:00,
2013-09-28 20:37:00,56.1,54.1,29.88,West,280,0.0,2.0,93,0.08,,---,0.32,0.00,VWS V14.01,2013-09-29 01:37:00,
2013-09-28 20:42:00,55.9,53.9,29.87,West,280,0.0,2.0,93,0.08,,---,0.32,0.00,VWS V14.01,2013-09-29 01:42:00,
2013-09-28 20:47:00,55.7,53.7,29.87,West,280,0.0,2.0,93,0.08,,---,0.32,0.00,VWS V14.01,2013-09-29 01:47:00,
2013-09-28 20:53:00,55.5,53.5,29.88,West,280,0.0,2.0,93,0.08,,---,0.32,0.00,VWS V14.01,2013-09-29 01:53:00,
2013-09-28 20:57:00,55.3,53.3,29.88,West,280,0.0,2.0,93,0.08,,---,0.32,0.00,VWS V14.01,2013-09-29 01:57:00,
2013-09-28 21:00:00,55.3,53.3,29.88,West,280,0.0,2.0,93,0.08,,---,0.32,0.00,VWS V14.01,2013-09-29 02:00:00,
2013-09-28 21:02:00,55.2,53.2,29.88,West,280,0.0,0.0,93,0.00,,---,0.32,0.00,VWS V14.01,2013-09-29 02:02:00,
2013-09-28 21:08:00,55.0,53.0,29.89,West,280,0.0,0.0,93,0.00,,---,0.32,0.00,VWS V14.01,2013-09-29 02:08:00,
2013-09-28 21:13:00,54.9,52.9,29.89,West,280,0.0,0.0,93,0.00,,---,0.32,0.00,VWS V14.01,2013-09-29 02:13:00,
2013-09-28 21:18:00,54.7,52.7,29.89,West,280,0.0,0.0,93,0.00,,---,0.32,0.00,VWS V14.01,2013-09-29 02:18:00,
2013-09-28 21:23:00,54.6,52.6,29.89,West,280,0.0,0.0,93,0.00,,---,0.32,0.00,VWS V14.01,2013-09-29 02:23:00,
2013-09-28 21:28:00,54.4,52.4,29.89,West,280,0.0,0.0,93,0.00,,---,0.32,0.00,VWS V14.01,2013-09-29 02:28:00,
2013-09-28 21:33:00,54.0,52.0,29.89,West,280,0.0,0.0,93,0.00,,---,0.32,0.00,VWS V14.01,2013-09-29 02:33:00,
2013-09-28 21:38:00,53.7,51.7,29.90,West,280,0.0,0.0,93,0.00,,---,0.32,0.00,VWS V14.01,2013-09-29 02:38:00,
2013-09-28 21:43:00,53.5,51.5,29.90,West,280,0.0,0.0,93,0.00,,---,0.32,0.00,VWS V14.01,2013-09-29 02:43:00,
2013-09-28 21:48:00,53.3,51.3,29.90,West,280,0.0,0.0,93,0.00,,---,0.32,0.00,VWS V14.01,2013-09-29 02:48:00,
2013-09-28 21:53:00,53.2,51.2,29.90,West,280,0.0,0.0,93,0.00,,---,0.32,0.00,VWS V14.01,2013-09-29 02:53:00,
2013-09-28 21:58:00,53.0,51.0,29.90,West,280,0.0,0.0,93,0.00,,---,0.32,0.00,VWS V14.01,2013-09-29 02:58:00,
2013-09-28 22:00:00,53.0,51.0,29.90,West,280,0.0,0.0,93,0.00,,---,0.32,0.00,VWS V14.01,2013-09-29 03:00:00,
2013-09-28 22:03:00,52.8,50.8,29.90,West,280,0.0,0.0,93,0.00,,---,0.32,0.00,VWS V14.01,2013-09-29 03:03:00,
2013-09-28 22:08:00,52.7,50.7,29.90,West,280,0.0,0.0,93,0.00,,---,0.32,0.00,VWS V14.01,2013-09-29 03:08:00,
2013-09-28 22:13:00,52.5,50.5,29.90,West,280,0.0,0.0,93,0.00,,---,0.32,0.00,VWS V14.01,2013-09-29 03:13:00,
2013-09-28 22:18:00,52.3,50.3,29.91,West,281,0.0,2.0,93,0.00,,---,0.32,0.00,VWS V14.01,2013-09-29 03:18:00,
2013-09-28 22:23:00,52.2,50.2,29.91,West,281,0.0,2.0,93,0.00,,---,0.32,0.00,VWS V14.01,2013-09-29 03:23:00,
2013-09-28 22:28:00,52.1,50.1,29.91,West,281,0.0,2.0,93,0.00,,---,0.32,0.00,VWS V14.01,2013-09-29 03:28:00,
2013-09-28 22:33:00,52.0,50.0,29.91,West,281,0.0,2.0,93,0.00,,---,0.32,0.00,VWS V14.01,2013-09-29 03:33:00,
2013-09-28 22:38:00,51.9,49.9,29.91,West,281,0.0,2.0,93,0.00,,---,0.32,0.00,VWS V14.01,2013-09-29 03:38:00,
2013-09-28 22:43:00,51.8,49.8,29.91,West,281,0.0,2.0,93,0.00,,---,0.32,0.00,VWS V14.01,2013-09-29 03:43:00,
2013-09-28 22:48:00,51.6,49.9,29.91,West,281,0.0,2.0,94,0.00,,---,0.32,0.00,VWS V14.01,2013-09-29 03:48:00,
2013-09-28 22:53:00,51.5,49.8,29.91,West,281,0.0,2.0,94,0.00,,---,0.32,0.00,VWS V14.01,2013-09-29 03:53:00,
2013-09-28 22:58:00,51.5,49.8,29.92,West,281,0.0,2.0,94,0.00,,---,0.32,0.00,VWS V14.01,2013-09-29 03:58:00,
2013-09-28 23:00:00,51.5,49.8,29.92,West,281,0.0,2.0,94,0.00,,---,0.32,0.00,VWS V14.01,2013-09-29 04:00:00,
2013-09-28 23:01:00,51.4,49.7,29.92,West,281,0.0,0.0,94,0.00,,---,0.32,0.00,VWS V14.01,2013-09-29 04:01:00,
2013-09-28 23:06:00,51.4,49.7,29.92,West,281,0.0,0.0,94,0.00,,---,0.32,0.00,VWS V14.01,2013-09-29 04:06:00,
2013-09-28 23:11:00,51.3,49.6,29.92,West,281,0.0,0.0,94,0.00,,---,0.32,0.00,VWS V14.01,2013-09-29 04:11:00,
2013-09-28 23:16:00,51.3,49.6,29.92,West,281,0.0,0.0,94,0.00,,---,0.32,0.00,VWS V14.01,2013-09-29 04:16:00,
2013-09-28 23:21:00,51.4,50.0,29.92,West,281,0.0,1.0,95,0.00,,---,0.32,0.00,VWS V14.01,2013-09-29 04:21:00,
2013-09-28 23:26:00,51.3,49.9,29.92,West,281,0.0,1.0,95,0.00,,---,0.32,0.00,VWS V14.01,2013-09-29 04:26:00,
2013-09-28 23:31:00,51.3,49.9,29.92,West,281,0.0,1.0,95,0.00,,---,0.32,0.00,VWS V14.01,2013-09-29 04:31:00,
2013-09-28 23:36:00,51.3,49.9,29.92,West,281,1.0,1.0,95,0.00,,---,0.32,0.00,VWS V14.01,2013-09-29 04:36:00,
2013-09-28 23:41:00,51.1,49.7,29.93,West,281,0.0,1.0,95,0.00,,---,0.32,0.00,VWS V14.01,2013-09-29 04:41:00,
2013-09-28 23:46:00,51.0,49.3,29.93,West,281,0.0,1.0,94,0.00,,---,0.32,0.00,VWS V14.01,2013-09-29 04:46:00,
2013-09-28 23:51:00,50.8,49.1,29.93,West,281,0.0,1.0,94,0.00,,---,0.32,0.00,VWS V14.01,2013-09-29 04:51:00,
2013-09-28 23:56:00,50.8,49.4,29.93,West,281,0.0,1.0,95,0.00,,---,0.32,0.00,VWS V14.01,2013-09-29 04:56:00,